When you browse on this site, cookies collect data to enhance your experience and personalize the content and advertising you see.
Visit our Privacy Policy to learn more. By continuing to use the site, you agree to this use of cookies and data.
  • In Czech Republic
  • List of Countries
  • For 7 days
  • Water Temperature
  • Satellite Maps
  • Weather Map
  • Weather Widgets
  • user-avatar
    Login

    Hourly Weather Walnut Creek

    Today, 20 July, Saturday

    Time Temperature Precipitation Wind Pressure Humidity
    00:00 +15°C° 0 mm 2 mps 748 mmHg 88%
    01:00 +15°C° 0 mm 2 mps 747 mmHg 89%
    02:00 +15°C° 0 mm 2 mps 747 mmHg 89%
    03:00 +15°C° 0 mm 2 mps 748 mmHg 89%
    04:00 +15°C° 0 mm 2 mps 748 mmHg 89%
    05:00 +15°C° 0 mm 2 mps 748 mmHg 85%
    06:00 +16°C° 0 mm 2 mps 748 mmHg 81%
    07:00 +17°C° 0 mm 2 mps 748 mmHg 77%
    08:00 +19°C° 0 mm 2 mps 748 mmHg 68%
    09:00 +21°C° 0 mm 2 mps 748 mmHg 59%
    10:00 +24°C° 0 mm 3 mps 748 mmHg 50%
    11:00 +25°C° 0 mm 3 mps 748 mmHg 47%
    12:00 +26°C° 0 mm 4 mps 748 mmHg 44%
    13:00 +27°C° 0 mm 4 mps 748 mmHg 42%
    14:00 +27°C° 0 mm 4 mps 747 mmHg 42%
    15:00 +27°C° 0 mm 4 mps 747 mmHg 42%
    16:00 +27°C° 0 mm 4 mps 747 mmHg 42%
    17:00 +25°C° 0 mm 4 mps 747 mmHg 47%
    18:00 +22°C° 0 mm 3 mps 746 mmHg 52%
    19:00 +21°C° 0 mm 3 mps 746 mmHg 57%
    20:00 +19°C° 0 mm 3 mps 747 mmHg 62%
    21:00 +18°C° 0 mm 2 mps 747 mmHg 66%
    22:00 +17°C° 0 mm 2 mps 747 mmHg 71%
    23:00 +16°C° 0 mm 2 mps 747 mmHg 73%

    Tomorrow, 21 July, Sunday

    Time Temperature Precipitation Wind Pressure Humidity
    00:00 +16°C° 0 mm 2 mps 747 mmHg 75%
    01:00 +16°C° 0 mm 2 mps 747 mmHg 77%
    02:00 +15°C° 0 mm 2 mps 747 mmHg 78%
    03:00 +15°C° 0 mm 1 mps 747 mmHg 79%
    04:00 +15°C° 0 mm 1 mps 747 mmHg 81%
    05:00 +16°C° 0 mm 1 mps 747 mmHg 76%
    06:00 +18°C° 0 mm 1 mps 747 mmHg 71%
    07:00 +19°C° 0 mm 1 mps 747 mmHg 66%
    08:00 +22°C° 0 mm 1 mps 747 mmHg 57%
    09:00 +25°C° 0 mm 2 mps 748 mmHg 48%
    10:00 +27°C° 0 mm 2 mps 748 mmHg 39%
    11:00 +28°C° 0 mm 2 mps 748 mmHg 36%
    12:00 +30°C° 0 mm 3 mps 748 mmHg 34%
    13:00 +32°C° 0 mm 4 mps 747 mmHg 32%
    14:00 +30°C° 0 mm 4 mps 747 mmHg 33%
    15:00 +29°C° 0 mm 4 mps 747 mmHg 35%
    16:00 +29°C° 0 mm 4 mps 747 mmHg 36%
    17:00 +27°C° 0 mm 4 mps 747 mmHg 41%
    18:00 +25°C° 0 mm 3 mps 746 mmHg 45%
    19:00 +22°C° 0 mm 3 mps 746 mmHg 50%
    20:00 +21°C° 0 mm 3 mps 747 mmHg 55%
    21:00 +20°C° 0 mm 2 mps 747 mmHg 60%
    22:00 +18°C° 0 mm 2 mps 747 mmHg 65%
    23:00 +18°C° 0 mm 2 mps 747 mmHg 68%

    Day after tomorrow, 22 July, Monday

    Time Temperature Precipitation Wind Pressure Humidity
    00:00 +17°C° 0 mm 2 mps 747 mmHg 72%
    01:00 +16°C° 0 mm 2 mps 747 mmHg 76%
    02:00 +16°C° 0 mm 2 mps 747 mmHg 78%
    03:00 +16°C° 0 mm 2 mps 747 mmHg 80%
    04:00 +15°C° 0 mm 2 mps 747 mmHg 82%
    05:00 +16°C° 0 mm 2 mps 748 mmHg 77%
    06:00 +17°C° 0 mm 2 mps 748 mmHg 72%
    07:00 +18°C° 0 mm 2 mps 748 mmHg 67%
    08:00 +21°C° 0 mm 2 mps 749 mmHg 58%
    09:00 +25°C° 0 mm 2 mps 749 mmHg 48%
    10:00 +27°C° 0 mm 2 mps 749 mmHg 39%
    11:00 +29°C° 0 mm 2 mps 749 mmHg 36%
    12:00 +30°C° 0 mm 3 mps 749 mmHg 33%
    13:00 +32°C° 0 mm 4 mps 749 mmHg 30%
    14:00 +32°C° 0 mm 4 mps 749 mmHg 31%
    15:00 +30°C° 0 mm 4 mps 749 mmHg 32%
    16:00 +29°C° 0 mm 4 mps 748 mmHg 33%
    17:00 +27°C° 0 mm 4 mps 748 mmHg 39%
    18:00 +25°C° 0 mm 3 mps 749 mmHg 44%
    19:00 +21°C° 0 mm 3 mps 749 mmHg 50%
    20:00 +20°C° 0 mm 3 mps 749 mmHg 55%
    21:00 +19°C° 0 mm 3 mps 749 mmHg 60%
    22:00 +17°C° 0 mm 3 mps 749 mmHg 65%
    23:00 +17°C° 0 mm 2 mps 749 mmHg 67%

    23 July, Tuesday

    Time Temperature Precipitation Wind Pressure Humidity
    00:00 +17°C° 0 mm 2 mps 749 mmHg 70%
    01:00 +16°C° 0 mm 2 mps 749 mmHg 72%
    02:00 +16°C° 0 mm 2 mps 749 mmHg 74%
    03:00 +16°C° 0 mm 2 mps 749 mmHg 76%
    04:00 +15°C° 0 mm 2 mps 749 mmHg 78%
    05:00 +17°C° 0 mm 2 mps 750 mmHg 73%
    06:00 +18°C° 0 mm 2 mps 750 mmHg 69%
    07:00 +19°C° 0 mm 2 mps 750 mmHg 64%
    08:00 +21°C° 0 mm 2 mps 750 mmHg 56%
    09:00 +25°C° 0 mm 2 mps 750 mmHg 47%
    10:00 +27°C° 0 mm 2 mps 750 mmHg 39%
    11:00 +28°C° 0 mm 3 mps 750 mmHg 35%
    12:00 +30°C° 0 mm 3 mps 750 mmHg 32%
    13:00 +32°C° 0 mm 4 mps 750 mmHg 29%
    14:00 +30°C° 0 mm 4 mps 750 mmHg 30%
    15:00 +30°C° 0 mm 4 mps 750 mmHg 31%
    16:00 +29°C° 0 mm 4 mps 749 mmHg 32%
    17:00 +27°C° 0 mm 4 mps 749 mmHg 37%
    18:00 +25°C° 0 mm 3 mps 749 mmHg 43%
    19:00 +22°C° 0 mm 3 mps 749 mmHg 48%
    20:00 +21°C° 0 mm 3 mps 749 mmHg 54%
    21:00 +19°C° 0 mm 3 mps 749 mmHg 59%
    22:00 +17°C° 0 mm 2 mps 750 mmHg 64%
    23:00 +17°C° 0 mm 2 mps 750 mmHg 66%

    24 July, Wednesday

    Time Temperature Precipitation Wind Pressure Humidity
    00:00 +17°C° 0 mm 2 mps 749 mmHg 67%
    01:00 +16°C° 0 mm 2 mps 749 mmHg 68%
    02:00 +16°C° 0 mm 2 mps 749 mmHg 69%
    03:00 +16°C° 0 mm 1 mps 749 mmHg 71%
    04:00 +16°C° 0 mm 1 mps 749 mmHg 72%
    05:00 +18°C° 0 mm 1 mps 749 mmHg 66%
    06:00 +19°C° 0 mm 1 mps 749 mmHg 61%
    07:00 +21°C° 0 mm 1 mps 750 mmHg 55%
    08:00 +24°C° 0 mm 1 mps 750 mmHg 46%
    09:00 +27°C° 0 mm 1 mps 749 mmHg 37%
    10:00 +30°C° 0 mm 1 mps 749 mmHg 29%
    11:00 +32°C° 0 mm 2 mps 749 mmHg 25%
    12:00 +34°C° 0 mm 2 mps 749 mmHg 21%
    13:00 +36°C° 0 mm 3 mps 749 mmHg 17%
    14:00 +35°C° 0 mm 3 mps 748 mmHg 18%
    15:00 +35°C° 0 mm 3 mps 748 mmHg 18%
    16:00 +35°C° 0 mm 4 mps 747 mmHg 18%
    17:00 +31°C° 0 mm 3 mps 747 mmHg 23%
    18:00 +28°C° 0 mm 3 mps 747 mmHg 28%
    19:00 +26°C° 0 mm 2 mps 747 mmHg 33%
    20:00 +24°C° 0 mm 2 mps 747 mmHg 38%
    21:00 +21°C° 0 mm 2 mps 747 mmHg 43%
    22:00 +19°C° 0 mm 2 mps 748 mmHg 48%
    23:00 +19°C° 0 mm 2 mps 747 mmHg 51%

    25 July, Thursday

    Time Temperature Precipitation Wind Pressure Humidity
    00:00 +18°C° 0 mm 2 mps 747 mmHg 53%
    01:00 +18°C° 0 mm 2 mps 747 mmHg 56%
    02:00 +18°C° 0 mm 2 mps 747 mmHg 57%
    03:00 +18°C° 0 mm 1 mps 747 mmHg 58%
    04:00 +18°C° 0 mm 1 mps 747 mmHg 60%
    05:00 +19°C° 0 mm 1 mps 747 mmHg 56%
    06:00 +20°C° 0 mm 1 mps 747 mmHg 52%
    07:00 +22°C° 0 mm 1 mps 748 mmHg 48%
    08:00 +24°C° 0 mm 1 mps 748 mmHg 41%
    09:00 +27°C° 0 mm 1 mps 748 mmHg 34%
    10:00 +30°C° 0 mm 1 mps 748 mmHg 27%
    11:00 +32°C° 0 mm 2 mps 748 mmHg 24%
    12:00 +34°C° 0 mm 3 mps 747 mmHg 21%
    13:00 +36°C° 0 mm 3 mps 747 mmHg 19%
    14:00 +35°C° 0 mm 3 mps 747 mmHg 19%
    15:00 +35°C° 0 mm 4 mps 746 mmHg 19%
    16:00 +34°C° 0 mm 4 mps 746 mmHg 19%
    17:00 +31°C° 0 mm 3 mps 746 mmHg 26%
    18:00 +28°C° 0 mm 3 mps 746 mmHg 32%
    19:00 +25°C° 0 mm 3 mps 746 mmHg 38%
    20:00 +24°C° 0 mm 2 mps 746 mmHg 44%
    21:00 +21°C° 0 mm 2 mps 746 mmHg 49%
    22:00 +19°C° 0 mm 2 mps 747 mmHg 55%
    23:00 +19°C° 0 mm 2 mps 747 mmHg 56%
    Show more